Time,TemperatureF,DewpointF,PressureIn,WindDirection,WindDirectionDegrees,WindSpeedMPH,WindSpeedGustMPH,Humidity,HourlyPrecipIn,Conditions,Clouds,dailyrainin,SoftwareType,DateUTC
2015-02-28 00:02:00,47.8,43.5,29.71,South,180,0.0,0.0,85,0.00,,,0.42,meteohub,2015-02-28 08:02:00,
2015-02-28 00:07:00,47.8,43.5,29.71,ENE,68,0.0,0.0,85,0.00,,,0.42,meteohub,2015-02-28 08:07:00,
2015-02-28 00:12:00,47.8,43.5,29.71,SSW,202,0.0,1.0,85,0.00,,,0.00,meteohub,2015-02-28 08:12:00,
2015-02-28 00:17:00,47.7,43.3,29.71,South,180,0.0,2.0,85,0.00,,,0.00,meteohub,2015-02-28 08:17:00,
2015-02-28 00:22:00,47.7,43.3,29.71,East,90,0.0,2.0,85,0.00,,,0.00,meteohub,2015-02-28 08:22:00,
2015-02-28 00:27:00,47.7,43.3,29.71,East,90,0.0,2.0,85,0.00,,,0.00,meteohub,2015-02-28 08:27:00,
2015-02-28 00:32:00,47.7,43.3,29.71,NE,45,0.0,2.0,85,0.00,,,0.00,meteohub,2015-02-28 08:32:00,
2015-02-28 00:37:00,47.5,43.2,29.71,East,90,0.0,1.0,85,0.00,,,0.00,meteohub,2015-02-28 08:37:00,
2015-02-28 00:42:00,47.5,43.2,29.71,North,0,3.0,3.0,85,0.00,,,0.00,meteohub,2015-02-28 08:42:00,
2015-02-28 00:47:00,47.5,43.2,29.74,East,90,2.0,3.0,85,0.00,,,0.00,meteohub,2015-02-28 08:47:00,
2015-02-28 00:52:00,47.5,43.2,29.74,East,90,1.0,4.0,85,0.00,,,0.00,meteohub,2015-02-28 08:52:00,
2015-02-28 00:57:00,47.5,43.2,29.74,East,90,0.0,4.0,85,0.00,,,0.00,meteohub,2015-02-28 08:57:00,
2015-02-28 01:02:00,47.5,43.2,29.74,ENE,68,0.0,4.0,85,0.00,,,0.00,meteohub,2015-02-28 09:02:00,
2015-02-28 01:07:00,47.5,43.5,29.74,ENE,68,0.0,3.0,86,0.00,,,0.00,meteohub,2015-02-28 09:07:00,
2015-02-28 01:12:00,47.5,43.5,29.74,ENE,68,0.0,3.0,86,0.00,,,0.00,meteohub,2015-02-28 09:12:00,
2015-02-28 01:17:00,47.5,43.5,29.77,North,0,0.0,3.0,86,0.00,,,0.00,meteohub,2015-02-28 09:17:00,
2015-02-28 01:22:00,47.3,43.3,29.77,North,0,0.0,1.0,86,0.00,,,0.00,meteohub,2015-02-28 09:22:00,
2015-02-28 01:27:00,47.3,43.3,29.77,North,0,0.0,0.0,86,0.00,,,0.00,meteohub,2015-02-28 09:27:00,
2015-02-28 01:32:00,47.3,43.3,29.77,NNW,338,0.0,0.0,86,0.00,,,0.00,meteohub,2015-02-28 09:32:00,
2015-02-28 01:37:00,47.3,43.3,29.77,NNW,338,0.0,0.0,86,0.00,,,0.00,meteohub,2015-02-28 09:37:00,
2015-02-28 01:42:00,47.1,43.2,29.77,WNW,292,0.0,0.0,86,0.00,,,0.00,meteohub,2015-02-28 09:42:00,
2015-02-28 01:47:00,47.1,43.2,29.77,West,270,0.0,0.0,86,0.00,,,0.00,meteohub,2015-02-28 09:47:00,
2015-02-28 01:52:00,47.1,43.2,29.77,West,270,0.0,0.0,86,0.00,,,0.00,meteohub,2015-02-28 09:52:00,
2015-02-28 01:57:00,47.1,43.2,29.77,West,270,0.0,0.0,86,0.00,,,0.00,meteohub,2015-02-28 09:57:00,
2015-02-28 02:02:00,46.9,43.0,29.77,WSW,248,1.0,0.0,86,0.00,,,0.00,meteohub,2015-02-28 10:02:00,
2015-02-28 02:07:00,46.9,43.0,29.77,SW,225,0.0,1.0,86,0.00,,,0.00,meteohub,2015-02-28 10:07:00,
2015-02-28 02:12:00,46.9,43.0,29.77,SW,225,0.0,1.0,86,0.00,,,0.00,meteohub,2015-02-28 10:12:00,
2015-02-28 02:17:00,46.8,42.8,29.77,SW,225,0.0,2.0,86,0.00,,,0.00,meteohub,2015-02-28 10:17:00,
2015-02-28 02:22:00,46.8,42.8,29.77,SW,225,0.0,2.0,86,0.00,,,0.00,meteohub,2015-02-28 10:22:00,
2015-02-28 02:27:00,46.6,42.6,29.77,NNE,22,0.0,2.0,86,0.00,,,0.00,meteohub,2015-02-28 10:27:00,
2015-02-28 02:32:00,46.6,42.6,29.74,NNE,22,0.0,2.0,86,0.00,,,0.00,meteohub,2015-02-28 10:32:00,
2015-02-28 02:37:00,46.4,42.4,29.74,NNE,22,0.0,2.0,86,0.00,,,0.00,meteohub,2015-02-28 10:37:00,
2015-02-28 02:42:00,46.2,42.3,29.74,NNE,22,0.0,0.0,86,0.00,,,0.00,meteohub,2015-02-28 10:42:00,
2015-02-28 02:47:00,46.2,42.3,29.74,NNE,22,0.0,0.0,86,0.00,,,0.00,meteohub,2015-02-28 10:47:00,
2015-02-28 02:52:00,46.0,42.1,29.74,NE,45,2.0,0.0,86,0.00,,,0.00,meteohub,2015-02-28 10:52:00,
2015-02-28 02:57:00,45.9,41.9,29.74,NE,45,2.0,2.0,86,0.00,,,0.00,meteohub,2015-02-28 10:57:00,
2015-02-28 03:02:00,45.7,41.7,29.77,NNE,22,0.0,2.0,86,0.00,,,0.00,meteohub,2015-02-28 11:02:00,
2015-02-28 03:07:00,45.7,41.7,29.77,North,0,0.0,2.0,86,0.00,,,0.00,meteohub,2015-02-28 11:07:00,
2015-02-28 03:12:00,45.5,41.5,29.77,NNE,22,0.0,2.0,86,0.00,,,0.00,meteohub,2015-02-28 11:12:00,
2015-02-28 03:17:00,45.5,41.5,29.77,NNE,22,0.0,0.0,86,0.00,,,0.00,meteohub,2015-02-28 11:17:00,
2015-02-28 03:22:00,45.5,41.5,29.77,NNE,22,0.0,0.0,86,0.00,,,0.00,meteohub,2015-02-28 11:22:00,
2015-02-28 03:27:00,45.3,41.4,29.77,SW,225,0.0,0.0,86,0.00,,,0.00,meteohub,2015-02-28 11:27:00,
2015-02-28 03:32:00,45.3,41.4,29.77,WSW,248,0.0,0.0,86,0.00,,,0.00,meteohub,2015-02-28 11:32:00,
2015-02-28 03:37:00,45.3,41.7,29.77,WSW,248,0.0,0.0,87,0.00,,,0.00,meteohub,2015-02-28 11:37:00,
2015-02-28 03:42:00,45.3,41.4,29.77,WSW,248,0.0,0.0,86,0.00,,,0.00,meteohub,2015-02-28 11:42:00,
2015-02-28 03:47:00,45.3,41.4,29.77,WSW,248,0.0,0.0,86,0.00,,,0.00,meteohub,2015-02-28 11:47:00,
2015-02-28 03:52:00,45.3,41.4,29.77,WNW,292,0.0,0.0,86,0.00,,,0.00,meteohub,2015-02-28 11:52:00,
2015-02-28 03:57:00,45.3,41.7,29.77,WNW,292,0.0,0.0,87,0.00,,,0.00,meteohub,2015-02-28 11:57:00,
2015-02-28 04:02:00,45.1,41.5,29.80,WNW,292,0.0,0.0,87,0.00,,,0.00,meteohub,2015-02-28 12:02:00,
2015-02-28 04:07:00,45.1,41.5,29.80,SW,225,0.0,0.0,87,0.00,,,0.00,meteohub,2015-02-28 12:07:00,
2015-02-28 04:12:00,45.1,41.5,29.80,WNW,292,0.0,0.0,87,0.00,,,0.00,meteohub,2015-02-28 12:12:00,
2015-02-28 04:17:00,45.1,41.5,29.80,West,270,0.0,0.0,87,0.00,,,0.00,meteohub,2015-02-28 12:17:00,
2015-02-28 04:22:00,45.0,41.4,29.80,West,270,0.0,0.0,87,0.00,,,0.00,meteohub,2015-02-28 12:22:00,
2015-02-28 04:27:00,44.8,41.2,29.80,West,270,0.0,0.0,87,0.00,,,0.00,meteohub,2015-02-28 12:27:00,
2015-02-28 04:32:00,44.8,41.2,29.80,West,270,0.0,0.0,87,0.00,,,0.00,meteohub,2015-02-28 12:32:00,
2015-02-28 04:37:00,44.6,41.0,29.80,West,270,0.0,0.0,87,0.00,,,0.00,meteohub,2015-02-28 12:37:00,
2015-02-28 04:42:00,44.4,40.8,29.80,West,270,0.0,0.0,87,0.00,,,0.00,meteohub,2015-02-28 12:42:00,
2015-02-28 04:47:00,44.2,40.6,29.83,NNE,22,0.0,0.0,87,0.00,,,0.00,meteohub,2015-02-28 12:47:00,
2015-02-28 04:52:00,44.1,40.1,29.83,North,0,0.0,0.0,86,0.00,,,0.00,meteohub,2015-02-28 12:52:00,
2015-02-28 04:57:00,43.7,39.7,29.83,North,0,0.0,0.0,86,0.00,,,0.00,meteohub,2015-02-28 12:57:00,
2015-02-28 05:02:00,43.5,39.6,29.83,North,0,0.0,0.0,86,0.00,,,0.00,meteohub,2015-02-28 13:02:00,
2015-02-28 05:07:00,43.3,39.4,29.83,NE,45,0.0,0.0,86,0.00,,,0.00,meteohub,2015-02-28 13:07:00,
2015-02-28 05:12:00,43.3,39.4,29.83,NE,45,0.0,0.0,86,0.00,,,0.00,meteohub,2015-02-28 13:12:00,
2015-02-28 05:17:00,43.2,39.2,29.83,NE,45,0.0,0.0,86,0.00,,,0.00,meteohub,2015-02-28 13:17:00,
2015-02-28 05:22:00,43.2,39.2,29.83,NE,45,0.0,0.0,86,0.00,,,0.00,meteohub,2015-02-28 13:22:00,
2015-02-28 05:27:00,43.2,39.2,29.83,NE,45,0.0,0.0,86,0.00,,,0.00,meteohub,2015-02-28 13:27:00,
2015-02-28 05:33:00,43.0,39.4,29.83,East,90,0.0,0.0,87,0.00,,,0.00,meteohub,2015-02-28 13:33:00,
2015-02-28 05:38:00,43.0,39.4,29.83,ENE,68,0.0,0.0,87,0.00,,,0.00,meteohub,2015-02-28 13:38:00,
2015-02-28 05:44:00,43.0,39.4,29.83,East,90,0.0,0.0,87,0.00,,,0.00,meteohub,2015-02-28 13:44:00,
2015-02-28 05:49:00,42.8,39.2,29.83,ENE,68,0.0,0.0,87,0.00,,,0.00,meteohub,2015-02-28 13:49:00,
2015-02-28 05:54:00,42.8,39.2,29.83,ENE,68,0.0,0.0,87,0.00,,,0.00,meteohub,2015-02-28 13:54:00,
2015-02-28 05:59:00,43.3,40.1,29.83,NNE,22,0.0,0.0,88,0.00,,,0.00,meteohub,2015-02-28 13:59:00,
2015-02-28 06:04:00,43.2,39.9,29.83,North,0,0.0,0.0,88,0.00,,,0.00,meteohub,2015-02-28 14:04:00,
2015-02-28 06:09:00,42.8,39.2,29.83,NW,315,0.0,0.0,87,0.00,,,0.00,meteohub,2015-02-28 14:09:00,
2015-02-28 06:14:00,42.8,39.2,29.83,NE,45,0.0,0.0,87,0.00,,,0.00,meteohub,2015-02-28 14:14:00,
2015-02-28 06:19:00,42.8,39.2,29.86,North,0,0.0,0.0,87,0.00,,,0.00,meteohub,2015-02-28 14:19:00,
2015-02-28 06:24:00,42.6,39.0,29.86,NE,45,0.0,0.0,87,0.00,,,0.00,meteohub,2015-02-28 14:24:00,
2015-02-28 06:29:00,42.3,38.7,29.86,NE,45,0.0,0.0,87,0.00,,,0.00,meteohub,2015-02-28 14:29:00,
2015-02-28 06:34:00,42.3,38.7,29.86,NNW,338,0.0,0.0,87,0.00,,,0.00,meteohub,2015-02-28 14:34:00,
2015-02-28 06:39:00,42.1,38.5,29.86,NE,45,0.0,0.0,87,0.00,,,0.00,meteohub,2015-02-28 14:39:00,
2015-02-28 06:44:00,41.9,37.9,29.86,NE,45,0.0,0.0,86,0.00,,,0.00,meteohub,2015-02-28 14:44:00,
2015-02-28 06:49:00,41.7,37.9,29.88,NE,45,0.0,0.0,86,0.00,,,0.00,meteohub,2015-02-28 14:49:00,
2015-02-28 06:54:00,41.5,37.8,29.88,NE,45,0.0,0.0,86,0.00,,,0.00,meteohub,2015-02-28 14:54:00,
2015-02-28 06:59:00,41.4,37.2,29.88,NE,45,0.0,0.0,85,0.00,,,0.00,meteohub,2015-02-28 14:59:00,
2015-02-28 07:04:00,41.2,37.0,29.88,NNE,22,0.0,0.0,85,0.00,,,0.00,meteohub,2015-02-28 15:04:00,
2015-02-28 07:09:00,41.0,36.9,29.88,NE,45,0.0,0.0,85,0.00,,,0.00,meteohub,2015-02-28 15:09:00,
2015-02-28 07:14:00,40.8,36.7,29.88,NNE,22,0.0,0.0,85,0.00,,,0.00,meteohub,2015-02-28 15:14:00,
2015-02-28 07:19:00,40.6,36.5,29.88,NNE,22,0.0,0.0,85,0.00,,,0.00,meteohub,2015-02-28 15:19:00,
2015-02-28 07:24:00,40.8,37.0,29.88,NNE,22,0.0,0.0,86,0.00,,,0.00,meteohub,2015-02-28 15:24:00,
2015-02-28 07:29:00,40.8,37.0,29.88,NE,45,0.0,0.0,86,0.00,,,0.00,meteohub,2015-02-28 15:29:00,
2015-02-28 07:34:00,40.6,37.0,29.88,North,0,0.0,0.0,87,0.00,,,0.00,meteohub,2015-02-28 15:34:00,
2015-02-28 07:39:00,40.6,37.0,29.88,NNE,22,0.0,0.0,87,0.00,,,0.00,meteohub,2015-02-28 15:39:00,
2015-02-28 07:44:00,41.0,37.4,29.88,NNE,22,0.0,0.0,87,0.00,,,0.00,meteohub,2015-02-28 15:44:00,
2015-02-28 07:49:00,41.2,37.6,29.88,NNE,22,0.0,0.0,87,0.00,,,0.00,meteohub,2015-02-28 15:49:00,
2015-02-28 07:54:00,41.2,37.6,29.88,NNE,22,1.0,0.0,87,0.00,,,0.00,meteohub,2015-02-28 15:54:00,
2015-02-28 07:59:00,41.2,37.6,29.88,ENE,68,3.0,3.0,87,0.00,,,0.00,meteohub,2015-02-28 15:59:00,
2015-02-28 08:04:00,41.5,38.3,29.88,WNW,292,0.0,2.0,88,0.00,,,0.00,meteohub,2015-02-28 16:04:00,
2015-02-28 08:09:00,41.5,37.9,29.88,North,0,1.0,4.0,87,0.00,,,0.00,meteohub,2015-02-28 16:09:00,
2015-02-28 08:14:00,41.7,38.5,29.88,NNW,338,2.0,4.0,88,0.00,,,0.00,meteohub,2015-02-28 16:14:00,
2015-02-28 08:19:00,41.9,38.7,29.91,NNE,22,0.0,3.0,88,0.00,,,0.00,meteohub,2015-02-28 16:19:00,
2015-02-28 08:24:00,42.3,39.0,29.91,NW,315,0.0,3.0,88,0.00,,,0.00,meteohub,2015-02-28 16:24:00,
2015-02-28 08:29:00,42.4,39.4,29.91,NNW,338,0.0,3.0,89,0.00,,,0.00,meteohub,2015-02-28 16:29:00,
2015-02-28 08:34:00,42.4,39.4,29.91,NW,315,0.0,3.0,89,0.00,,,0.00,meteohub,2015-02-28 16:34:00,
2015-02-28 08:39:00,42.6,39.6,29.91,NNE,22,0.0,2.0,89,0.00,,,0.00,meteohub,2015-02-28 16:39:00,
2015-02-28 08:44:00,42.8,39.7,29.91,NW,315,0.0,2.0,89,0.00,,,0.00,meteohub,2015-02-28 16:44:00,
2015-02-28 08:50:00,43.0,39.9,29.94,North,0,0.0,2.0,89,0.00,,,0.00,meteohub,2015-02-28 16:50:00,
2015-02-28 08:55:00,43.0,39.9,29.94,NNW,338,0.0,0.0,89,0.00,,,0.00,meteohub,2015-02-28 16:55:00,
2015-02-28 09:00:00,43.2,40.5,29.94,South,180,0.0,0.0,90,0.00,,,0.00,meteohub,2015-02-28 17:00:00,
2015-02-28 09:05:00,43.3,40.6,29.94,NNE,22,0.0,0.0,90,0.00,,,0.00,meteohub,2015-02-28 17:05:00,
2015-02-28 09:10:00,43.3,40.6,29.94,NNE,22,1.0,0.0,90,0.00,,,0.00,meteohub,2015-02-28 17:10:00,
2015-02-28 09:15:00,43.3,40.6,29.94,NNE,22,2.0,2.0,90,0.00,,,0.00,meteohub,2015-02-28 17:15:00,
2015-02-28 09:20:00,43.7,41.0,29.94,NNE,22,0.0,2.0,90,0.00,,,0.00,meteohub,2015-02-28 17:20:00,
2015-02-28 09:25:00,44.2,41.7,29.94,NNE,22,0.0,3.0,91,0.00,,,0.00,meteohub,2015-02-28 17:25:00,
2015-02-28 09:30:00,44.8,42.3,29.94,WNW,292,2.0,3.0,91,0.00,,,0.00,meteohub,2015-02-28 17:30:00,
2015-02-28 09:35:00,45.5,43.0,29.94,SE,135,4.0,4.0,91,0.00,,,0.00,meteohub,2015-02-28 17:35:00,
2015-02-28 09:40:00,45.7,43.0,29.94,WNW,292,1.0,4.0,90,0.00,,,0.00,meteohub,2015-02-28 17:40:00,
2015-02-28 09:45:00,46.2,42.8,29.94,East,90,2.0,5.0,88,0.00,,,0.00,meteohub,2015-02-28 17:45:00,
2015-02-28 09:50:00,46.6,42.6,29.94,East,90,0.0,5.0,86,0.00,,,0.00,meteohub,2015-02-28 17:50:00,
2015-02-28 09:55:00,46.8,42.4,29.94,SE,135,2.0,5.0,85,0.00,,,0.00,meteohub,2015-02-28 17:55:00,
2015-02-28 10:00:00,46.9,42.4,29.94,SE,135,3.0,4.0,84,0.00,,,0.00,meteohub,2015-02-28 18:00:00,
2015-02-28 10:05:00,47.3,41.5,29.94,NW,315,0.0,4.0,80,0.00,,,0.00,meteohub,2015-02-28 18:05:00,
2015-02-28 10:10:00,47.7,41.5,29.94,South,180,3.0,4.0,79,0.00,,,0.00,meteohub,2015-02-28 18:10:00,
2015-02-28 10:15:00,47.8,41.4,29.94,East,90,2.0,4.0,78,0.00,,,0.00,meteohub,2015-02-28 18:15:00,
2015-02-28 10:20:00,47.7,39.0,29.94,ESE,112,3.0,5.0,72,0.00,,,0.00,meteohub,2015-02-28 18:20:00,
2015-02-28 10:25:00,48.2,38.5,29.94,SE,135,1.0,5.0,69,0.00,,,0.00,meteohub,2015-02-28 18:25:00,
2015-02-28 10:30:00,48.2,37.4,29.94,South,180,3.0,6.0,66,0.00,,,0.00,meteohub,2015-02-28 18:30:00,
2015-02-28 10:35:00,48.4,36.0,29.94,SW,225,2.0,6.0,62,0.00,,,0.00,meteohub,2015-02-28 18:35:00,
2015-02-28 10:40:00,48.6,35.4,29.94,East,90,3.0,6.0,60,0.00,,,0.00,meteohub,2015-02-28 18:40:00,
2015-02-28 10:45:00,48.7,33.3,29.97,East,90,3.0,6.0,55,0.00,,,0.00,meteohub,2015-02-28 18:45:00,
2015-02-28 10:50:00,48.9,33.4,29.97,South,180,4.0,5.0,55,0.00,,,0.00,meteohub,2015-02-28 18:50:00,
2015-02-28 10:55:00,48.9,32.2,29.97,NE,45,6.0,9.0,52,0.00,,,0.00,meteohub,2015-02-28 18:55:00,
2015-02-28 11:00:00,49.1,32.7,29.97,NNE,22,4.0,9.0,53,0.00,,,0.00,meteohub,2015-02-28 19:00:00,
2015-02-28 11:05:00,49.3,27.1,29.97,NW,315,4.0,11.0,42,0.00,,,0.00,meteohub,2015-02-28 19:05:00,
2015-02-28 11:10:00,49.5,29.7,29.97,ENE,68,4.0,11.0,46,0.00,,,0.00,meteohub,2015-02-28 19:10:00,
2015-02-28 11:15:00,49.6,29.7,29.97,NNE,22,3.0,11.0,46,0.00,,,0.00,meteohub,2015-02-28 19:15:00,
2015-02-28 11:20:00,49.8,29.3,29.97,SE,135,3.0,6.0,45,0.00,,,0.00,meteohub,2015-02-28 19:20:00,
2015-02-28 11:25:00,49.8,29.8,29.97,SW,225,6.0,6.0,46,0.00,,,0.00,meteohub,2015-02-28 19:25:00,
2015-02-28 11:30:00,50.0,28.4,30.00,ENE,68,6.0,8.0,43,0.00,,,0.00,meteohub,2015-02-28 19:30:00,
2015-02-28 11:35:00,50.2,29.1,30.00,SW,225,4.0,8.0,44,0.00,,,0.00,meteohub,2015-02-28 19:35:00,
2015-02-28 11:40:00,50.4,28.2,30.00,North,0,3.0,8.0,42,0.00,,,0.00,meteohub,2015-02-28 19:40:00,
2015-02-28 11:45:00,50.4,29.3,30.00,SE,135,5.0,8.0,44,0.00,,,0.00,meteohub,2015-02-28 19:45:00,
2015-02-28 11:50:00,50.7,28.6,30.00,East,90,1.0,10.0,42,0.00,,,0.00,meteohub,2015-02-28 19:50:00,
2015-02-28 11:55:00,50.7,29.1,30.00,South,180,2.0,10.0,43,0.00,,,0.00,meteohub,2015-02-28 19:55:00,
2015-02-28 12:00:00,51.1,31.1,30.00,ENE,68,5.0,10.0,46,0.00,,,0.00,meteohub,2015-02-28 20:00:00,
2015-02-28 12:05:00,51.1,28.2,29.97,NW,315,7.0,7.0,41,0.00,,,0.00,meteohub,2015-02-28 20:05:00,
2015-02-28 12:10:00,51.6,28.8,29.97,ESE,112,3.0,7.0,41,0.00,,,0.00,meteohub,2015-02-28 20:10:00,
2015-02-28 12:15:00,51.8,28.9,30.00,NNW,338,4.0,9.0,41,0.00,,,0.00,meteohub,2015-02-28 20:15:00,
2015-02-28 12:20:00,52.0,29.1,30.00,NE,45,3.0,9.0,41,0.00,,,0.00,meteohub,2015-02-28 20:20:00,
2015-02-28 12:25:00,52.2,28.6,30.00,WSW,248,5.0,9.0,40,0.00,,,0.00,meteohub,2015-02-28 20:25:00,
2015-02-28 12:30:00,52.7,29.1,30.00,SSE,158,6.0,9.0,40,0.00,,,0.00,meteohub,2015-02-28 20:30:00,
2015-02-28 12:35:00,52.9,28.0,30.00,NW,315,4.0,12.0,38,0.00,,,0.00,meteohub,2015-02-28 20:35:00,
2015-02-28 12:40:00,53.2,29.7,30.00,West,270,1.0,12.0,40,0.00,,,0.00,meteohub,2015-02-28 20:40:00,
2015-02-28 12:46:00,53.6,29.3,30.00,SE,135,5.0,12.0,39,0.00,,,0.00,meteohub,2015-02-28 20:46:00,
2015-02-28 12:51:00,54.0,29.7,30.00,NW,315,6.0,9.0,39,0.00,,,0.00,meteohub,2015-02-28 20:51:00,
2015-02-28 12:56:00,54.1,29.1,30.00,NE,45,4.0,10.0,38,0.00,,,0.00,meteohub,2015-02-28 20:56:00,
2015-02-28 13:01:00,54.5,28.8,30.00,NE,45,6.0,12.0,37,0.00,,,0.00,meteohub,2015-02-28 21:01:00,
2015-02-28 13:06:00,54.9,29.8,30.00,ENE,68,6.0,12.0,38,0.00,,,0.00,meteohub,2015-02-28 21:06:00,
2015-02-28 13:11:00,55.0,30.0,30.00,NW,315,3.0,12.0,38,0.00,,,0.00,meteohub,2015-02-28 21:11:00,
2015-02-28 13:16:00,55.4,29.7,30.00,ESE,112,2.0,11.0,37,0.00,,,0.00,meteohub,2015-02-28 21:16:00,
2015-02-28 13:21:00,55.8,29.8,30.00,SE,135,2.0,11.0,37,0.00,,,0.00,meteohub,2015-02-28 21:21:00,
2015-02-28 13:26:00,55.9,30.0,30.00,North,0,5.0,8.0,37,0.00,,,0.00,meteohub,2015-02-28 21:26:00,
2015-02-28 13:31:00,55.9,29.5,30.00,East,90,4.0,6.0,36,0.00,,,0.00,meteohub,2015-02-28 21:31:00,
2015-02-28 13:36:00,55.9,30.0,30.00,East,90,3.0,6.0,37,0.00,,,0.00,meteohub,2015-02-28 21:36:00,
2015-02-28 13:41:00,56.7,31.5,30.00,ESE,112,2.0,6.0,38,0.00,,,0.00,meteohub,2015-02-28 21:41:00,
2015-02-28 13:46:00,56.8,30.9,30.00,ENE,68,4.0,6.0,37,0.00,,,0.00,meteohub,2015-02-28 21:46:00,
2015-02-28 13:51:00,56.8,30.2,30.00,East,90,2.0,8.0,36,0.00,,,0.00,meteohub,2015-02-28 21:51:00,
2015-02-28 13:56:00,57.0,30.4,30.00,ENE,68,6.0,8.0,36,0.00,,,0.00,meteohub,2015-02-28 21:56:00,
2015-02-28 14:01:00,57.4,31.3,30.00,WSW,248,5.0,9.0,37,0.00,,,0.00,meteohub,2015-02-28 22:01:00,
2015-02-28 14:06:00,57.6,31.5,30.00,East,90,3.0,9.0,37,0.00,,,0.00,meteohub,2015-02-28 22:06:00,
2015-02-28 14:11:00,57.7,30.9,30.00,NE,45,4.0,6.0,36,0.00,,,0.00,meteohub,2015-02-28 22:11:00,
2015-02-28 14:16:00,57.4,30.7,30.00,WSW,248,3.0,6.0,36,0.00,,,0.00,meteohub,2015-02-28 22:16:00,
2015-02-28 14:21:00,57.4,30.0,30.00,NE,45,3.0,8.0,35,0.00,,,0.00,meteohub,2015-02-28 22:21:00,
2015-02-28 14:26:00,57.6,30.2,30.00,West,270,2.0,8.0,35,0.00,,,0.00,meteohub,2015-02-28 22:26:00,
2015-02-28 14:31:00,57.6,30.2,30.00,SSE,158,1.0,8.0,35,0.00,,,0.00,meteohub,2015-02-28 22:31:00,
2015-02-28 14:36:00,57.6,30.9,30.00,NW,315,4.0,10.0,36,0.00,,,0.00,meteohub,2015-02-28 22:36:00,
2015-02-28 14:41:00,57.6,30.9,30.00,NW,315,3.0,10.0,36,0.00,,,0.00,meteohub,2015-02-28 22:41:00,
2015-02-28 14:46:00,57.6,30.9,30.00,North,0,2.0,10.0,36,0.00,,,0.00,meteohub,2015-02-28 22:46:00,
2015-02-28 14:51:00,57.6,30.9,30.00,NE,45,3.0,9.0,36,0.00,,,0.00,meteohub,2015-02-28 22:51:00,
2015-02-28 14:56:00,57.7,30.9,30.00,NNW,338,4.0,9.0,36,0.00,,,0.00,meteohub,2015-02-28 22:56:00,
2015-02-28 15:01:00,57.9,31.1,30.00,NW,315,5.0,9.0,36,0.00,,,0.00,meteohub,2015-02-28 23:01:00,
2015-02-28 15:06:00,57.6,30.2,30.00,West,270,4.0,7.0,35,0.00,,,0.00,meteohub,2015-02-28 23:06:00,
2015-02-28 15:11:00,57.7,30.9,30.00,ENE,68,2.0,7.0,36,0.00,,,0.00,meteohub,2015-02-28 23:11:00,
2015-02-28 15:16:00,57.7,30.9,30.00,NNW,338,12.0,12.0,36,0.00,,,0.00,meteohub,2015-02-28 23:16:00,
2015-02-28 15:21:00,57.6,30.2,30.00,SW,225,3.0,12.0,35,0.00,,,0.00,meteohub,2015-02-28 23:21:00,
2015-02-28 15:26:00,57.6,30.2,30.00,NE,45,2.0,12.0,35,0.00,,,0.00,meteohub,2015-02-28 23:26:00,
2015-02-28 15:31:00,57.6,30.2,29.97,NNW,338,0.0,12.0,35,0.00,,,0.00,meteohub,2015-02-28 23:31:00,
2015-02-28 15:36:00,57.6,30.2,29.97,WNW,292,4.0,7.0,35,0.00,,,0.00,meteohub,2015-02-28 23:36:00,
2015-02-28 15:41:00,57.6,30.2,29.97,NNW,338,2.0,6.0,35,0.00,,,0.00,meteohub,2015-02-28 23:41:00,
2015-02-28 15:46:00,57.4,30.0,29.97,NW,315,6.0,6.0,35,0.00,,,0.00,meteohub,2015-02-28 23:46:00,
2015-02-28 15:51:00,57.2,29.8,29.97,NNE,22,2.0,6.0,35,0.00,,,0.00,meteohub,2015-02-28 23:51:00,
2015-02-28 15:56:00,57.2,29.8,29.97,NW,315,1.0,6.0,35,0.00,,,0.00,meteohub,2015-02-28 23:56:00,
2015-02-28 16:01:00,57.2,29.8,29.97,WNW,292,2.0,6.0,35,0.00,,,0.00,meteohub,2015-03-01 00:01:00,
2015-02-28 16:06:00,57.0,30.4,29.97,WNW,292,4.0,12.0,36,0.00,,,0.00,meteohub,2015-03-01 00:06:00,
2015-02-28 16:11:00,56.8,29.5,29.97,West,270,4.0,12.0,35,0.00,,,0.00,meteohub,2015-03-01 00:11:00,
2015-02-28 16:16:00,56.7,29.3,29.97,East,90,1.0,13.0,35,0.00,,,0.00,meteohub,2015-03-01 00:16:00,
2015-02-28 16:21:00,56.7,29.3,30.00,ENE,68,2.0,13.0,35,0.00,,,0.00,meteohub,2015-03-01 00:21:00,
2015-02-28 16:26:00,56.5,29.1,30.00,West,270,0.0,7.0,35,0.00,,,0.00,meteohub,2015-03-01 00:26:00,
2015-02-28 16:31:00,56.5,29.1,30.00,NNW,338,3.0,5.0,35,0.00,,,0.00,meteohub,2015-03-01 00:31:00,